Temp
19 19 19 19 22 24 25 28 31 32 30 30 29 30 30 30 28 26 25 24 24 24 24 23 23 23 22 21 20 19 19 19 19 18 18 18 18 18 18 19 18 17 17 16 16 16 16 16 16
19 17 19 22 22 24 26 30 30 32 31 29 28 28 29 30 27 25 24 23 24 24 24 23 23 22 21 20 20 19 19 19 19 18 18 18 18 18 18 18 18 18 17 17 16 15 16 16 16
19 18 21 23 23 24 26 31 31 31 29 28 29 28 29 29 27 26 24 23 23 24 24 23 23 22 21 20 20 19 19 19 19 18 18 18 18 18 18 18 18 18 17 17 17 15 15 15 15
18 19 21 22 24 27 27 30 31 30 29 28 29 29 29 27 27 25 23 22 22 24 23 23 23 22 21 20 20 19 19 19 18 18 18 18 18 17 17 17 17 17 17 16 16 16 16 16 15
18 22 22 23 24 26 29 30 30 30 29 29 28 29 29 27 26 25 23 22 21 21 23 23 22 22 21 21 20 19 19 19 18 18 17 17 17 17 17 17 17 16 16 16 15 15 16 15 15
20 22 21 23 25 27 29 30 30 29 29 29 28 28 28 26 26 24 23 22 21 22 23 23 22 22 21 21 20 19 19 18 18 18 18 17 17 16 16 16 16 16 15 15 15 14 15 15 15
21 22 22 23 25 27 29 31 29 29 28 29 27 27 27 26 25 24 23 21 21 21 23 23 22 22 21 21 20 20 19 19 18 18 18 17 16 16 16 16 16 15 15 15 15 14 14 14 14
21 23 22 24 25 26 29 30 28 28 28 28 28 27 27 27 25 23 22 21 20 20 23 23 22 22 21 21 20 20 19 19 18 18 17 17 16 15 15 15 15 15 15 14 14 14 14 14 13
21 21 21 23 24 25 28 29 27 27 27 28 28 27 25 24 23 23 22 21 19 19 21 22 22 21 21 20 20 19 19 19 18 18 17 17 16 15 15 15 14 15 14 14 14 14 13 14 13
21 21 21 24 26 26 27 28 29 27 26 27 27 26 24 23 23 23 23 22 20 19 19 20 21 21 21 20 20 19 19 19 19 18 17 17 16 15 15 15 14 14 14 14 14 14 14 13 13
20 20 22 24 25 25 27 27 28 27 27 26 27 26 25 24 23 23 23 23 21 20 19 18 19 19 19 19 20 19 19 19 19 18 17 17 16 15 15 14 14 14 14 13 13 13 13 13 13
20 22 22 23 24 25 26 26 27 26 26 26 27 26 25 24 24 24 24 23 23 22 20 19 19 18 18 17 17 18 19 19 19 19 18 15 15 15 15 14 14 13 13 13 13 13 13 13 14
21 22 22 23 23 23 24 25 25 25 25 25 26 25 25 24 24 24 24 24 24 23 22 21 19 19 19 18 17 17 17 18 18 16 16 15 15 15 15 14 14 14 14 14 13 13 13 13 14
21 22 23 23 23 23 23 24 24 24 24 24 24 24 24 24 24 23 24 24 24 24 23 22 20 20 19 18 17 17 17 17 17 15 15 15 15 15 15 15 14 14 13 13 12 13 13 13 13
20 20 22 23 23 23 23 22 22 23 23 23 23 23 23 23 24 24 23 24 24 24 24 22 21 20 20 18 17 17 17 17 17 17 16 14 15 15 15 15 14 14 13 13 13 13 12 12 12
19 19 19 22 23 23 23 21 23 23 23 23 23 23 23 23 23 23 24 24 24 24 23 23 21 20 20 18 16 16 16 16 16 16 17 17 14 14 14 15 14 14 13 13 13 13 12 12 12
18 18 19 19 22 22 22 21 22 23 24 24 23 23 23 23 23 24 24 24 24 24 24 23 21 20 20 19 17 16 16 16 15 15 15 17 15 14 14 14 14 14 13 13 12 12 12 12 12
16 17 18 20 22 22 22 22 23 23 23 23 24 24 24 24 23 23 24 24 24 24 24 23 22 21 20 19 18 16 15 15 15 15 15 15 16 16 15 15 14 13 13 12 12 12 12 12 12
17 18 19 20 22 22 22 22 23 24 23 24 24 24 24 24 24 24 23 23 23 23 23 22 21 20 19 18 17 16 16 15 15 14 14 14 15 15 15 15 14 12 13 13 12 12 11 11 11
17 18 19 21 22 19 19 19 22 23 23 23 24 24 24 24 24 23 23 22 22 21 20 20 20 20 19 18 18 17 16 15 14 14 14 14 14 15 15 15 15 12 11 12 12 12 11 10 10
17 17 18 19 17 14 17 16 18 22 23 23 24 24 23 23 23 23 23 21 20 19 19 19 19 19 19 18 17 16 16 15 14 13 13 13 13 13 13 15 14 12 12 12 10 11 11 11 10
17 18 18 19 16 11 16 14 18 20 21 22 22 23 23 23 23 23 23 21 19 19 19 18 17 18 18 18 18 17 16 16 15 13 12 13 13 13 12 12 13 13 11 11 10 11 11 10 10
17 19 19 18 15 12 14 14 16 18 18 19 22 23 23 22 22 22 21 20 19 19 18 17 16 16 16 17 17 16 16 16 13 12 11 12 12 13 13 12 12 12 12 11 10 11 10 10 10
19 17 16 15 14 12 13 14 16 18 19 19 22 23 22 21 20 20 20 19 19 19 17 17 16 16 16 16 16 16 15 15 13 12 12 12 11 12 13 12 11 12 11 11 10 10 11 10 10
16 15 11 10 11 11 15 14 16 20 22 21 22 22 20 19 19 19 19 19 17 17 16 16 15 15 15 15 15 15 15 14 13 13 13 13 12 12 12 11 11 10 10 10 11 10 10 10 10
15 14 12 11 11 13 15 15 17 20 22 22 21 20 19 19 18 18 18 16 15 14 14 13 14 13 13 14 15 15 14 13 12 13 13 14 13 12 12 11 11 10 10 11 10 10 10 9 9
15 14 15 14 13 14 16 17 20 21 20 21 20 19 18 18 18 17 16 14 13 12 11 10 10 11 11 13 14 14 14 13 12 13 13 14 13 11 12 11 10 10 10 10 9 10 10 9 9
16 16 13 13 12 12 12 16 16 19 19 19 18 19 19 18 17 16 15 13 12 11 10 9 9 9 10 12 13 12 13 13 12 12 12 13 13 11 11 11 10 9 11 9 10 9 9 9 9
14 15 15 15 15 14 13 12 16 18 18 13 19 18 15 14 14 13 13 12 11 10 9 8 7 8 10 11 12 12 13 12 11 12 12 12 12 11 10 10 9 10 10 10 10 10 9 9 9
17 15 16 14 14 15 15 14 15 16 19 18 14 14 12 12 11 11 10 9 8 8 8 6 7 7 9 10 11 13 12 11 11 12 12 12 12 10 10 10 9 10 9 9 10 9 9 9 9
Height
1496 1498 1499 1501 1502 1486 1478 1462 1442 1436 1442 1446 1450 1451 1451 1452 1454 1474 1473 1475 1475 1479 1482 1485 1487 1489 1490 1492 1494 1496 1499 1502 1505 1508 1511 1514 1516 1518 1520 1522 1524 1527 1529 1531 1533 1535 1537 1539 1541
1496 1499 1503 1497 1494 1486 1468 1442 1437 1433 1440 1450 1456 1457 1457 1456 1458 1467 1472 1476 1476 1479 1482 1485 1486 1488 1490 1492 1494 1497 1499 1502 1506 1508 1511 1514 1517 1519 1521 1523 1524 1527 1530 1532 1534 1537 1539 1541 1542
1495 1499 1501 1490 1484 1479 1463 1435 1434 1437 1446 1452 1456 1459 1459 1459 1461 1467 1470 1475 1477 1480 1482 1485 1486 1488 1490 1492 1495 1497 1500 1502 1505 1508 1511 1514 1517 1520 1522 1524 1525 1527 1530 1532 1534 1538 1541 1543 1545
1494 1499 1498 1487 1474 1458 1454 1439 1437 1440 1448 1452 1454 1457 1459 1460 1462 1464 1471 1475 1478 1480 1482 1485 1487 1488 1491 1493 1496 1498 1500 1502 1505 1509 1512 1515 1517 1520 1522 1524 1527 1528 1530 1533 1536 1539 1540 1541 1545
1493 1491 1488 1479 1470 1457 1444 1438 1436 1440 1446 1450 1454 1453 1455 1460 1465 1465 1471 1476 1478 1480 1483 1485 1487 1489 1492 1493 1496 1498 1501 1503 1505 1508 1511 1514 1517 1520 1522 1525 1527 1530 1532 1534 1537 1538 1539 1542 1545
1488 1484 1483 1476 1463 1451 1442 1438 1436 1441 1446 1450 1455 1454 1456 1458 1464 1467 1472 1475 1477 1478 1482 1484 1487 1489 1492 1494 1496 1498 1501 1503 1505 1508 1511 1514 1517 1520 1523 1525 1526 1529 1532 1534 1536 1538 1539 1542 1544
1482 1475 1469 1466 1459 1448 1437 1433 1434 1441 1447 1449 1454 1456 1459 1458 1462 1466 1471 1475 1476 1477 1480 1483 1486 1488 1491 1494 1496 1497 1500 1502 1504 1507 1510 1513 1517 1519 1523 1524 1527 1529 1532 1535 1535 1538 1538 1541 1544
1480 1475 1466 1455 1455 1450 1438 1434 1437 1442 1444 1449 1450 1453 1455 1455 1458 1465 1469 1473 1475 1476 1478 1482 1485 1487 1490 1492 1494 1496 1499 1501 1503 1506 1509 1512 1515 1518 1521 1524 1526 1527 1530 1533 1534 1537 1538 1540 1543
1475 1473 1459 1456 1452 1444 1439 1434 1438 1445 1446 1446 1446 1452 1455 1456 1459 1464 1468 1472 1473 1475 1477 1479 1482 1485 1488 1491 1493 1495 1496 1499 1501 1503 1507 1510 1512 1515 1518 1521 1523 1525 1528 1530 1533 1535 1536 1538 1541
1467 1459 1450 1451 1444 1440 1436 1434 1434 1439 1445 1445 1445 1449 1453 1457 1459 1463 1464 1468 1471 1473 1475 1477 1479 1482 1486 1488 1490 1492 1494 1496 1498 1501 1504 1507 1509 1512 1515 1518 1521 1522 1526 1528 1530 1532 1534 1537 1538
1460 1440 1448 1443 1441 1441 1434 1430 1430 1434 1439 1443 1442 1446 1451 1456 1458 1459 1461 1464 1467 1470 1473 1475 1477 1479 1482 1485 1486 1489 1491 1493 1495 1497 1500 1504 1507 1510 1513 1515 1518 1520 1522 1525 1526 1529 1531 1533 1535
1452 1438 1445 1441 1440 1437 1433 1432 1426 1431 1436 1439 1440 1442 1446 1451 1454 1455 1457 1460 1462 1465 1470 1473 1474 1477 1479 1483 1484 1486 1488 1490 1491 1493 1496 1500 1504 1506 1509 1512 1514 1516 1517 1521 1522 1526 1528 1530 1532
1435 1437 1437 1436 1437 1435 1435 1430 1430 1428 1433 1436 1438 1440 1443 1447 1451 1453 1455 1456 1458 1459 1462 1465 1469 1472 1475 1479 1483 1486 1484 1486 1488 1491 1492 1496 1499 1502 1505 1508 1511 1513 1515 1517 1519 1521 1524 1527 1529
1433 1432 1428 1430 1426 1428 1431 1429 1430 1428 1433 1433 1436 1437 1439 1443 1446 1450 1452 1452 1454 1456 1456 1458 1461 1466 1471 1474 1479 1482 1483 1484 1488 1488 1490 1493 1495 1498 1500 1504 1507 1510 1512 1514 1515 1517 1520 1523 1526
1429 1428 1421 1415 1415 1420 1427 1423 1417 1428 1430 1431 1430 1434 1436 1439 1442 1444 1448 1448 1451 1452 1455 1454 1457 1460 1465 1469 1474 1477 1480 1479 1481 1484 1487 1490 1493 1494 1495 1498 1503 1507 1510 1511 1511 1514 1516 1519 1522
1424 1424 1418 1397 1411 1414 1422 1409 1413 1423 1425 1424 1425 1425 1430 1433 1436 1438 1441 1444 1446 1449 1452 1453 1454 1456 1459 1465 1469 1473 1476 1478 1477 1479 1482 1484 1488 1491 1492 1494 1497 1502 1506 1507 1508 1510 1513 1514 1518
1418 1407 1399 1407 1406 1409 1412 1400 1411 1414 1413 1414 1415 1416 1420 1424 1428 1430 1434 1438 1441 1444 1447 1451 1450 1450 1455 1461 1465 1468 1469 1472 1474 1476 1476 1479 1482 1485 1487 1489 1492 1496 1500 1503 1505 1506 1509 1511 1514
1388 1396 1400 1397 1395 1397 1401 1393 1404 1407 1405 1406 1406 1407 1410 1413 1417 1423 1427 1432 1435 1439 1443 1445 1446 1447 1448 1454 1459 1464 1464 1467 1469 1472 1473 1472 1476 1479 1482 1484 1488 1491 1493 1496 1500 1503 1506 1508 1510
1394 1396 1391 1388 1388 1388 1390 1389 1391 1393 1399 1398 1396 1402 1404 1408 1412 1415 1419 1425 1430 1433 1435 1440 1444 1446 1447 1449 1453 1457 1459 1460 1463 1465 1467 1467 1471 1473 1476 1479 1482 1485 1487 1490 1495 1499 1502 1503 1506
1395 1393 1388 1379 1379 1389 1392 1396 1383 1385 1389 1395 1394 1397 1401 1404 1409 1412 1417 1419 1423 1428 1431 1435 1439 1444 1446 1447 1449 1452 1454 1456 1456 1458 1462 1463 1465 1468 1471 1472 1475 1478 1480 1484 1488 1492 1495 1497 1500
1390 1391 1386 1384 1393 1412 1404 1407 1399 1386 1386 1387 1389 1393 1396 1400 1406 1410 1414 1415 1420 1426 1430 1434 1437 1440 1443 1444 1446 1447 1448 1449 1450 1451 1456 1460 1460 1463 1465 1467 1470 1471 1475 1478 1482 1486 1489 1491 1494
1381 1379 1383 1383 1394 1430 1412 1417 1399 1391 1388 1387 1387 1388 1390 1395 1402 1405 1408 1412 1419 1425 1428 1431 1434 1436 1437 1438 1440 1438 1437 1440 1440 1442 1448 1454 1456 1458 1459 1461 1463 1466 1469 1472 1476 1480 1483 1486 1489
1374 1372 1377 1384 1402 1420 1418 1421 1395 1397 1393 1389 1381 1381 1386 1392 1400 1404 1406 1412 1419 1423 1427 1430 1432 1432 1431 1432 1433 1431 1432 1435 1435 1437 1439 1446 1449 1452 1454 1456 1456 1460 1463 1466 1470 1473 1477 1480 1483
1367 1377 1384 1395 1406 1420 1407 1413 1393 1386 1381 1381 1375 1378 1382 1388 1395 1401 1406 1413 1420 1423 1424 1427 1429 1428 1427 1427 1428 1426 1426 1428 1430 1432 1434 1437 1441 1445 1448 1449 1451 1454 1457 1460 1465 1468 1471 1473 1478
1368 1384 1409 1422 1417 1407 1396 1407 1386 1365 1362 1367 1369 1373 1383 1390 1398 1404 1408 1415 1420 1420 1422 1423 1424 1423 1423 1423 1422 1423 1421 1421 1426 1429 1429 1432 1434 1437 1440 1442 1445 1448 1452 1456 1459 1463 1466 1469 1473
1375 1383 1400 1408 1409 1398 1388 1389 1373 1367 1360 1363 1368 1377 1386 1393 1402 1408 1410 1413 1418 1418 1419 1418 1418 1418 1418 1415 1417 1416 1417 1416 1420 1425 1426 1425 1428 1431 1434 1437 1439 1443 1447 1450 1454 1458 1461 1464 1468
1377 1385 1382 1390 1389 1389 1375 1373 1354 1357 1363 1364 1374 1381 1390 1395 1402 1407 1410 1414 1418 1420 1420 1418 1414 1412 1410 1409 1407 1408 1407 1411 1414 1419 1421 1420 1424 1426 1429 1431 1435 1438 1441 1445 1449 1453 1457 1459 1463
1371 1377 1392 1389 1394 1393 1392 1374 1377 1361 1366 1375 1390 1381 1390 1396 1401 1406 1410 1413 1417 1417 1416 1412 1408 1405 1402 1399 1399 1400 1400 1402 1407 1412 1415 1416 1419 1423 1424 1426 1430 1433 1436 1440 1444 1448 1452 1456 1459
1377 1376 1380 1380 1377 1386 1390 1398 1371 1371 1369 1387 1379 1384 1393 1399 1402 1406 1411 1413 1414 1414 1412 1408 1401 1396 1393 1391 1390 1389 1390 1395 1400 1405 1409 1411 1414 1418 1420 1422 1425 1427 1430 1434 1439 1444 1447 1451 1455
1362 1369 1373 1385 1384 1375 1381 1390 1377 1375 1370 1378 1385 1394 1401 1411 1409 1410 1413 1413 1412 1411 1408 1403 1395 1389 1386 1384 1383 1380 1385 1389 1394 1399 1403 1405 1409 1415 1416 1419 1421 1423 1425 1430 1434 1439 1443 1446 1450
Wind_Speed
8 7 4 9 6 8 15 18 20 6 3 1 8 4 6 15 9 6 13 12 13 18 16 13 9 4 4 5 7 9 10 10 10 11 12 12 12 10 8 9 10 9 9 9 7 8 10 9 8
7 7 9 12 8 12 14 22 22 3 11 11 2 9 4 3 18 18 16 16 12 18 15 12 9 4 5 7 9 11 10 9 10 12 12 13 14 11 10 11 10 10 9 8 7 7 6 7 8
9 12 14 6 13 16 16 21 9 13 13 7 5 8 6 4 14 14 17 20 15 17 14 13 11 7 5 8 11 11 10 9 9 11 11 13 14 11 11 11 11 10 10 10 8 7 4 6 7
11 7 12 11 21 21 24 20 2 7 5 5 9 6 8 7 8 12 19 18 17 16 15 13 11 9 8 9 11 11 10 9 9 10 11 12 14 14 13 12 12 11 10 9 9 9 5 7 8
12 11 11 15 21 24 22 26 0 6 4 12 14 13 13 11 8 17 22 19 18 16 15 13 12 11 10 11 11 11 10 10 10 11 11 13 15 14 13 12 12 11 10 10 9 9 4 7 9
14 14 14 16 23 25 22 27 10 7 10 9 8 11 7 17 14 19 22 20 19 19 17 15 13 13 12 12 12 12 11 11 11 11 12 12 14 13 14 13 14 13 13 13 12 11 4 9 8
19 13 18 22 22 24 22 25 12 11 12 12 10 10 12 18 18 18 21 21 20 20 18 18 15 15 14 14 13 13 12 12 12 12 12 11 11 13 14 15 15 14 14 12 12 11 8 9 9
25 15 26 21 19 25 25 21 7 10 14 17 15 11 9 19 21 18 19 19 21 21 20 18 18 16 16 16 15 15 14 14 13 13 12 12 11 13 15 15 16 17 16 16 14 10 9 12 11
26 16 20 26 24 22 26 22 9 7 15 19 20 13 8 10 14 18 21 19 17 19 21 19 19 19 18 17 17 16 16 15 15 15 15 15 15 16 17 17 19 20 18 18 16 13 11 14 17
21 18 29 24 22 20 25 25 15 8 15 17 15 9 8 6 12 18 23 24 23 19 19 20 19 20 20 19 19 19 18 17 17 17 17 17 19 18 18 19 22 21 20 20 19 15 13 14 16
30 30 23 28 31 33 27 22 23 12 14 17 16 16 12 11 14 19 22 24 26 21 19 19 19 19 20 19 20 19 20 20 20 20 20 19 21 20 19 18 20 21 22 24 25 22 18 18 17
29 33 33 34 35 31 22 28 24 17 19 19 20 24 24 20 16 18 22 26 28 25 23 21 21 23 24 17 18 13 16 17 19 19 19 20 18 20 22 24 25 26 25 26 27 26 23 24 20
32 28 36 37 34 33 30 26 22 23 23 17 23 18 13 19 16 18 20 22 24 29 29 28 26 26 24 23 22 19 22 19 15 14 15 18 22 23 23 24 24 23 24 24 25 25 21 24 19
31 33 33 35 35 34 26 25 26 28 24 23 21 21 24 18 23 23 23 23 24 24 32 34 31 29 27 26 26 24 25 25 21 22 19 19 20 20 21 22 23 22 19 20 24 26 24 21 21
32 28 28 28 33 27 30 25 30 29 27 27 29 28 28 27 27 28 29 29 26 23 18 33 33 31 29 29 26 26 27 27 22 24 24 23 26 25 23 22 22 22 22 23 27 26 24 23 22
24 25 25 32 26 23 26 32 25 29 30 31 32 32 30 30 33 33 32 30 26 27 25 20 32 30 28 29 28 28 26 26 26 24 22 26 24 28 28 24 22 23 23 26 27 27 25 25 25
24 25 33 26 25 26 24 33 23 28 30 34 37 36 33 34 33 30 27 28 31 27 25 26 25 27 26 27 29 28 31 31 29 24 28 24 25 25 27 24 22 21 22 26 28 28 25 25 25
36 29 22 25 23 25 28 29 21 26 25 25 26 20 29 33 37 36 34 31 28 28 27 23 24 25 26 26 23 28 29 28 31 30 29 33 28 28 28 26 24 22 21 24 27 28 24 23 24
26 26 27 26 25 25 26 27 23 25 21 19 20 29 19 16 18 19 20 22 21 22 21 13 13 15 24 27 28 27 31 32 32 33 32 36 30 30 28 27 25 28 28 27 25 25 24 25 19
29 28 27 19 17 2 6 17 16 15 19 23 21 17 21 18 17 18 21 23 19 13 10 11 13 16 17 24 29 29 31 32 34 33 33 27 26 28 28 28 27 27 26 26 24 22 22 25 22
28 27 23 25 5 14 10 15 20 17 17 21 23 28 29 24 22 22 24 20 15 10 10 12 16 18 21 25 26 25 31 37 40 38 34 29 31 29 29 25 28 27 29 28 26 23 25 25 28
25 26 26 20 6 4 12 8 17 15 18 17 21 23 17 19 19 19 18 16 10 9 8 12 12 15 18 22 28 31 38 41 41 39 35 34 32 29 30 24 26 26 27 28 27 26 25 24 28
24 19 21 11 6 8 13 10 20 20 22 20 27 35 27 20 26 15 13 10 10 8 10 7 10 13 14 19 26 33 38 38 34 30 32 37 33 33 30 28 30 27 26 24 25 27 26 23 29
21 4 7 5 7 8 20 15 15 17 26 23 19 12 15 18 14 10 10 7 4 7 6 9 10 12 14 16 21 31 35 36 32 28 26 31 36 34 32 31 31 27 25 25 26 22 23 26 25
14 13 4 4 7 13 14 15 18 15 14 20 11 20 25 20 12 8 8 6 0 4 7 4 10 16 14 18 22 24 30 34 29 28 29 27 35 37 36 33 32 28 26 27 24 25 24 25 29
16 16 6 7 7 9 19 11 17 23 17 19 18 24 22 16 12 8 7 6 6 10 12 15 17 15 22 19 22 29 32 32 30 30 30 33 32 33 32 31 31 28 26 24 23 23 25 24 31
21 18 16 2 7 4 8 17 5 22 8 14 15 21 13 13 14 10 9 7 7 10 14 20 23 21 24 26 22 30 35 34 33 34 26 36 29 23 28 29 28 28 29 24 22 23 27 25 31
16 17 13 7 3 3 5 15 4 6 19 17 12 13 15 11 11 7 6 8 8 12 18 24 25 24 28 29 28 31 36 32 30 38 29 32 30 27 26 24 26 27 29 25 25 21 23 26 28
9 13 11 11 9 2 1 1 13 6 12 5 8 14 23 21 20 16 11 10 11 14 23 27 31 33 25 25 28 33 36 31 32 37 28 30 28 25 27 22 23 28 26 25 23 23 22 24 27
12 14 16 7 10 5 1 2 9 11 12 11 25 19 22 14 15 15 14 15 17 19 23 30 33 34 24 22 14 31 31 27 31 36 30 33 30 26 24 20 22 25 23 23 22 22 19 25 27
Wind_Direction
236 224 248 268 245 229 255 250 250 259 23 57 10 312 320 343 25 78 122 134 167 139 128 117 101 121 168 163 165 169 173 175 180 186 191 193 187 187 181 173 169 165 159 154 158 161 168 173 173
221 230 253 269 237 244 250 243 245 159 111 93 26 285 318 338 104 126 121 137 149 135 126 107 92 106 131 141 153 161 166 170 184 188 191 194 194 194 192 188 179 175 170 164 172 167 169 174 170
208 208 254 225 237 245 257 270 31 102 99 129 203 227 209 247 98 123 146 145 148 140 131 113 99 118 130 143 151 157 160 163 177 183 192 195 197 200 204 197 189 184 180 175 176 152 153 188 188
157 223 245 261 255 231 244 267 44 125 124 190 232 169 209 104 116 142 141 152 154 150 143 133 115 113 139 149 156 158 162 166 172 185 194 200 204 207 208 206 198 193 188 181 176 155 175 217 215
212 227 233 254 249 259 275 283 110 240 230 196 225 241 182 142 101 147 146 157 159 158 156 151 140 133 146 155 162 167 173 177 180 190 200 204 211 217 216 215 207 198 195 194 181 182 202 203 214
208 223 244 247 250 255 258 257 210 205 238 195 229 254 223 160 150 149 155 164 175 177 170 168 163 160 162 167 171 175 184 189 191 200 209 212 216 221 222 221 216 205 202 201 196 191 268 237 210
240 231 230 243 259 272 272 262 180 196 235 227 199 234 231 157 164 157 166 173 186 190 184 182 179 178 181 183 186 186 192 198 202 208 213 220 221 226 227 225 223 216 215 214 213 214 276 213 205
234 254 254 244 252 260 273 288 180 229 232 236 236 216 269 178 159 162 174 180 195 196 200 192 194 192 194 196 198 201 202 206 210 215 218 221 217 225 229 227 220 223 226 222 220 234 221 204 200
230 245 248 243 241 250 267 270 171 243 253 246 230 201 130 128 163 168 179 185 197 204 203 207 203 202 205 208 210 210 212 214 216 219 219 222 221 221 226 226 223 227 228 228 230 246 221 229 206
232 239 239 251 250 250 253 260 264 210 223 253 205 182 136 160 179 188 185 191 198 206 207 210 212 211 210 215 217 217 219 221 223 224 224 221 223 226 226 231 229 227 230 232 235 241 244 222 222
229 240 240 249 254 259 271 269 273 213 236 228 232 207 215 215 209 199 200 200 202 209 206 203 214 218 216 205 224 220 223 223 225 228 226 223 224 223 222 227 229 235 229 231 239 240 234 222 235
243 240 243 250 262 269 259 268 257 272 228 250 241 200 217 203 215 213 214 208 203 204 207 201 222 222 225 206 225 229 232 230 228 227 225 216 223 225 223 224 233 231 230 229 240 243 240 228 245
240 247 248 245 247 256 266 265 270 255 262 266 263 264 204 194 216 230 226 225 217 204 205 204 212 232 232 207 211 200 240 238 235 231 221 212 217 222 227 230 233 236 231 229 234 238 233 233 237
247 250 253 250 249 239 249 256 255 246 245 262 269 262 258 249 225 232 235 234 224 226 208 206 209 221 233 231 204 213 222 239 232 229 219 217 217 223 226 231 227 232 229 221 226 233 233 232 232
254 256 261 249 237 244 239 251 239 248 241 240 241 250 249 250 244 235 239 229 230 230 232 206 208 215 229 235 222 202 214 237 239 232 223 216 215 219 227 229 228 230 227 220 226 227 226 235 231
239 247 246 240 249 239 232 249 239 238 242 236 233 226 236 244 243 244 232 237 225 225 228 230 207 209 229 233 225 218 209 218 238 248 236 227 218 217 224 230 229 236 232 229 233 234 230 227 234
243 232 230 246 239 233 216 247 244 242 238 237 232 226 225 227 241 233 233 228 230 230 229 221 213 222 236 238 221 227 222 216 218 230 249 238 223 218 224 222 232 241 238 232 234 231 233 229 241
221 226 234 242 223 233 230 238 236 238 236 250 252 229 225 223 222 227 228 231 229 228 235 223 220 220 230 241 236 216 239 238 224 217 235 239 230 225 221 224 219 234 234 232 231 235 231 242 252
235 233 228 231 238 248 225 239 233 225 236 239 230 217 213 219 201 210 205 224 234 224 217 209 214 214 220 225 236 226 220 233 234 224 226 237 233 229 225 227 221 225 233 238 234 229 240 240 236
245 239 241 246 248 295 211 284 279 235 238 226 237 220 236 205 219 209 209 197 196 198 218 230 240 244 232 235 240 236 227 227 232 228 226 244 238 232 227 229 227 227 227 235 232 236 236 227 230
226 239 238 241 87 15 244 256 275 256 252 248 231 211 208 209 223 227 222 183 177 197 223 241 243 245 247 235 233 226 225 233 234 237 229 223 233 233 228 227 231 230 228 230 237 234 237 237 232
232 221 236 242 207 206 241 253 252 265 254 264 272 264 239 212 239 247 213 168 171 200 213 234 248 248 242 241 228 225 230 235 244 243 234 214 218 224 229 229 232 233 234 231 232 231 242 240 223
235 236 223 218 251 228 239 256 252 254 264 271 227 243 225 219 227 218 139 149 178 194 200 224 271 265 244 237 238 232 239 244 247 245 235 224 225 224 223 223 231 237 237 229 233 228 236 233 226
219 130 139 178 208 239 232 231 264 233 228 236 237 223 175 139 130 136 127 153 192 218 235 264 284 284 278 254 240 241 243 247 238 237 232 228 220 221 217 221 230 233 234 227 226 230 238 226 223
142 161 147 183 211 233 208 225 235 264 204 226 235 171 126 122 123 132 134 174 2 343 352 324 294 290 282 277 254 246 240 250 246 227 231 230 222 220 218 226 227 230 227 224 220 223 228 230 227
163 177 169 189 207 240 220 230 242 236 256 202 138 116 113 125 129 161 116 70 22 351 326 310 285 294 283 262 271 249 239 249 239 222 228 233 228 223 222 224 229 231 225 221 224 232 233 239 234
172 195 205 205 235 252 203 236 344 209 125 104 123 117 125 148 138 93 75 74 26 344 320 314 305 290 283 271 254 256 246 242 242 225 235 225 220 220 219 223 221 224 215 228 221 226 225 235 228
194 188 216 245 233 217 241 199 164 227 131 141 182 151 141 130 87 69 71 46 2 334 317 313 317 305 289 276 244 263 253 255 233 221 225 222 231 222 225 224 219 221 216 219 221 218 225 231 231
200 207 204 237 261 347 168 272 145 241 122 125 161 98 56 55 64 58 42 10 348 331 320 315 317 317 300 288 249 249 246 255 228 216 216 210 214 219 222 225 218 212 213 212 221 220 228 224 226
215 202 210 210 240 232 179 257 24 16 150 155 81 64 66 55 43 35 19 2 352 337 321 314 321 321 301 283 277 232 237 247 225 214 212 213 219 221 215 216 216 213 209 211 216 218 225 224 223